Regional Weather Roundup
Issued by NWS

Home | Current Version | Previous Version | Text Only | Print | Product List | Glossary Off
Versions: 1 2 3 4 5 6 7 8 9 10 11 12 13 14 15 16 17 18 19 20 21 22 23 24 25 26 27 28 29 30 31 32 33 34 35 36 37 38 39 40 41 42 43 44 45 46 47 48 49 50

000
ASUS43 KDMX 280207
RWRIA

WEATHER ROUNDUP FOR IOWA
NATIONAL WEATHER SERVICE DES MOINES IA
900 PM CDT SUN JUL 27 2014

NOTE: "FAIR" INDICATES FEW OR NO CLOUDS BELOW 12,000 FEET WITH NO
SIGNIFICANT WEATHER AND/OR OBSTRUCTIONS TO VISIBILITY.

* - THESE STATIONS ARE NOT NWS STATIONS...THUS NOT UNDER NWS
QUALITY CONTROL.  THEY ALSO DO NOT REPORT WEATHER SUCH
AS PRECIPITATION OR FOG.

IAZ001>003-012>014-020>022-031>034-043>046-280300-
   NORTHWEST IOWA

CITY           SKY/WX    TMP DP  RH WIND       PRES   REMARKS
CARROLL *      CLEAR     64  57  77 N9        30.11R
CHEROKEE *     CLEAR     65  58  79 NW7       30.14R
DENISON *      CLEAR     66  55  68 N9        30.11R
LE MARS *      CLEAR     64  57  77 CALM      30.16S
ORANGE CITY *  CLEAR     63  55  77 NW6       30.16S
SHELDON *      MOCLDY    64  57  77 NW7       30.14S
SIOUX CITY     CLEAR     70  56  61 N14G22    30.14R
SPENCER        CLEAR     65  57  75 NW12      30.13R
STORM LAKE *   CLEAR     64  59  82 NW9       30.14R
$$

IAZ055>058-069>071-079>083-090>094-280300-
   SOUTHWEST IOWA

CITY           SKY/WX    TMP DP  RH WIND       PRES   REMARKS
ATLANTIC *     CLEAR     68  57  68 NW3       30.11R
AUDUBON *      CLEAR     70  63  78 N7        30.13R
CLARINDA *     CLEAR     70  59  68 N6        30.13R
COUNCIL BLFS * CLEAR     70  61  73 N5        30.12R
CRESTON *      CLEAR     66  57  72 NW8       30.11R
HARLAN  *      CLEAR     66  59  77 N5        30.15S
LAMONI         CLEAR     68  56  65 N9        30.09R
RED OAK *      CLEAR     70  57  64 N7        30.12R
SHENANDOAH *   CLEAR     68  59  73 N6        30.12S
$$

IAZ047>049-059>061-072>074-084-280300-
   CENTRAL IOWA

CITY           SKY/WX    TMP DP  RH WIND       PRES   REMARKS
AMES           CLEAR     68  58  70 NW9       30.06R
ANKENY *       CLEAR     70  57  64 NW9       30.06S
CHARITON *     CLEAR     68  57  68 NW9       30.07R
DES MOINES     PTCLDY    71  57  61 NW13      30.06R
GRINNELL*      CLEAR     66  59  77 W9        30.04S
KNOXVILLE *    CLEAR     70  57  64 NW12      30.04S
MARSHALLTOWN   PTCLDY    66  60  81 NW9       30.03R
PELLA *        CLEAR     67  58  72 NW8       30.05S
PERRY *          N/A     65  58  77 NW5       30.09S
$$

IAZ004>006-015-016-023>025-035-036-280300-
   NORTH CENTRAL IOWA

CITY           SKY/WX    TMP DP  RH WIND       PRES   REMARKS
ALGONA *       PTCLDY    66  61  82 NW9       30.10R
CLARION *      CLOUDY    68  61  77 NW12      30.07R
ESTHERVILLE    CLEAR     64  58  80 NW9       30.11R
FORT DODGE *   CLEAR     66  57  72 NW5       30.10R
MASON CITY     MOCLDY    67  61  81 NW13      30.06R
FOREST CITY *  CLOUDY    66  61  82 NE12G20   30.06R
IOWA FALLS *     N/A     68  59  74 NW13      30.06R
$$

IAZ007>011-017>019-026>030-037>042-050>054-066-280300-
   NORTHEAST IOWA

CITY           SKY/WX    TMP DP  RH WIND       PRES   REMARKS
CEDAR RAPIDS   PTCLDY    67  60  78 W10       29.98R
CHARLES CITY * CLOUDY    64  63  94 NW7       30.03R
CLINTON *      CLEAR     66  59  77 NW7       29.96R
DECORAH *      MOCLDY    68  59  73 N7        29.99R
DUBUQUE        CLOUDY    69  59  70 N14       29.96R
MONTICELLO *   PTCLDY    70  63  78 NW9       29.96R
OELWEIN *      CLEAR     66  61  82 NW8       30.00R
WATERLOO       PTCLDY    69  60  73 NW8       29.99R
$$

IAZ064-065-067-068-078-280300-
   EAST CENTRAL IOWA

CITY           SKY/WX    TMP DP  RH WIND       PRES   REMARKS
DAVENPORT      CLEAR     66  60  81 W10       29.95R
IOWA CITY      CLEAR     70  61  73 NW10      29.99R
MT. PLEASANT * CLEAR     70  56  62 W9        29.99S
MUSCATINE *    CLEAR     70  61  73 NW13      29.97R
QUAD CITIES    CLEAR     71  59  65 W14G20    29.94R
$$

IAZ062-063-075>077-085>089-095>099-280300-
   SOUTHEAST IOWA

CITY           SKY/WX    TMP DP  RH WIND       PRES   REMARKS
BURLINGTON     CLEAR     70  59  68 NW10      29.97S
FAIRFIELD *    CLEAR     68  59  73 NW8       30.01S
FORT MADISON * CLEAR     70  59  68 NW9       30.00R
KEOKUK *       CLEAR     70  59  68 NW9       29.99R
OSKALOOSA *      N/A     67  59  76 NW9       30.03S
CENTERVILLE *    N/A     66  57  72 NW6       30.07S
OTTUMWA        CLEAR     67  58  72 NW9       30.03R
WASHINGTON *   CLEAR     68  61  77 NW9       30.00R
$$

ABBREVIATIONS USED IN REMARKS
   TC - TEMPERATURES IN CELSIUS
  WCI - WIND CHILL INDEX
   HX - HEAT INDEX
  VSB - VISIBILITY
$$




USA.gov is the U.S. government's official web portal to all federal, state and local government web resources and services.